Location: Rocktram
(38.2574°N, 122.2805°W)
Time: 20:34:15
(UTC+00:00)

Cosmos 2333 Rocket - Pass Details

Date: 30 March 2020
Orbit: 841 x 861 km, 70.8° (Epoch: 29 May)

Event Time Altitude Azimuth Distance (km) Brightness Sun altitude
Rises 10:23:44 0° 348° (NNW) 3,403 5.7 -38.1°
Reaches altitude 10° 10:26:38 10° 2° (N) 2,465 5.1 -37.7°
Maximum altitude 10:31:15 25° 56° (ENE) 1,635 4.2 -37.0°
Drops below altitude 10° 10:35:51 10° 111° (ESE) 2,460 4.8 -36.4°
Sets 10:38:43 0° 125° (SE) 3,394 5.5 -36.0°
